GFSFLT2_850_temp_078.txt.gz
Temp
4 4 4 4 4 4 3 3 3 4 4 4 4 4 5 5 5 5 5 5 5 5 5 4 4 4 4
4 4 4 4 4 3 3 3 3 3 3 3 3 2 2 3 3 3 3 4 4 4 3 4 4 3 3
3 4 4 3 3 3 3 2 2 2 2 2 2 2 2 3 2 2 2 3 3 2 3 3 2 2 2
3 3 3 2 2 2 1 2 2 1 1 1 1 1 1 2 2 3 2 1 2 2 2 2 1 1 1
2 1 1 1 1 1 1 1 0 1 -0 -1 -0 -0 -0 1 1 1 1 2 2 1 0 0 0 0 0
1 1 0 0 -0 -0 -0 -0 -1 -1 -1 -1 -1 -1 -1 -1 -0 -0 -0 -0 -1 -1 -1 -1 -1 -1 -1
1 0 -0 -0 -1 -1 -1 -2 -2 -2 -2 -2 -1 -2 -1 -1 -1 -1 -1 -1 -1 -1 -1 -1 -1 -2 -2
-0 -1 -1 -1 -2 -2 -2 -2 -3 -2 -3 -2 -2 -2 -2 -2 -1 -2 -2 -2 -2 -2 -2 -3 -3 -3 -3
-1 -1 -2 -2 -2 -2 -2 -3 -3 -4 -3 -3 -3 -2 -2 -2 -2 -2 -2 -2 -2 -2 -3 -3 -3 -4 -5
-1 -2 -2 -2 -2 -2 -2 -3 -3 -4 -3 -4 -3 -3 -2 -2 -2 -3 -3 -3 -2 -3 -3 -3 -3 -3 -3
-2 -2 -2 -2 -3 -3 -3 -3 -4 -4 -4 -4 -4 -3 -3 -2 -2 -3 -3 -3 -4 -4 -4 -3 -4 -4 -3
-2 -2 -3 -3 -3 -4 -4 -4 -4 -4 -4 -4 -4 -4 -5 -4 -3 -4 -4 -4 -4 -4 -4 -4 -4 -4 -4
-2 -2 -2 -3 -4 -4 -4 -4 -3 -4 -4 -4 -4 -5 -5 -5 -5 -4 -4 -3 -4 -5 -5 -5 -4 -5 -4
-2 -2 -3 -3 -4 -4 -4 -4 -4 -4 -4 -4 -4 -5 -5 -5 -5 -4 -5 -6 -5 -5 -6 -5 -5 -5 -5
-2 -3 -3 -3 -4 -4 -4 -5 -4 -4 -5 -5 -5 -6 -6 -6 -5 -5 -6 -6 -6 -6 -7 -5 -5 -5 -5
-2 -3 -3 -3 -4 -4 -5 -5 -5 -5 -6 -6 -7 -7 -7 -5 -6 -6 -6 -6 -7 -7 -8 -8 -6 -6 -6
-3 -3 -3 -4 -4 -5 -5 -6 -5 -6 -6 -7 -7 -8 -9 -7 -6 -7 -7 -7 -7 -7 -8 -8 -8 -7 -6

GFSFLT2_850_temp_081.txt.gz
Temp
5 4 4 4 4 4 4 4 3 3 3 3 4 4 5 5 5 5 5 6 6 7 7 7 6 6 5
3 3 4 4 3 3 3 3 3 2 2 2 2 3 3 4 3 4 4 5 5 5 6 5 5 4 4
3 3 3 3 3 2 2 2 2 2 2 2 2 2 2 2 3 3 3 3 4 3 4 3 3 3 4
2 1 2 2 2 2 1 1 1 1 1 1 1 1 1 1 2 2 2 3 3 3 3 2 2 2 2
2 2 2 2 1 1 1 0 1 1 -0 0 0 0 1 1 1 0 1 1 1 2 2 2 1 1 1
2 1 1 1 0 0 0 -0 -0 -0 -1 -0 -0 -0 -0 -0 -0 0 0 0 0 0 1 1 0 -1 -1
2 1 1 0 -0 -0 -1 -1 -1 -1 -1 -1 -1 -1 -1 -1 -1 -1 -1 -0 -0 -0 -0 -1 -1 -1 -1
1 1 0 0 -0 -1 -1 -2 -2 -2 -2 -1 -1 -2 -2 -1 -1 -1 -1 -1 -1 -1 -1 -1 -2 -2 -2
1 0 0 -0 -0 -1 -1 -2 -3 -2 -2 -2 -2 -2 -1 -1 -2 -2 -2 -2 -2 -2 -2 -2 -2 -2 -2
-0 -1 -1 -1 -1 -2 -2 -2 -3 -3 -2 -2 -2 -2 -2 -2 -2 -2 -2 -2 -2 -2 -3 -3 -3 -3 -3
0 -0 -1 -1 -2 -3 -3 -3 -3 -3 -3 -3 -3 -3 -3 -2 -3 -3 -3 -3 -3 -3 -3 -3 -3 -3 -3
-0 -0 -1 -2 -3 -3 -3 -4 -3 -4 -4 -3 -3 -3 -3 -2 -3 -3 -4 -4 -4 -4 -4 -4 -4 -4 -4
-0 -1 -2 -3 -3 -3 -4 -4 -4 -4 -4 -4 -4 -4 -4 -4 -3 -3 -3 -4 -4 -5 -5 -4 -4 -4 -4
-1 -1 -2 -3 -3 -3 -4 -4 -3 -4 -4 -4 -4 -4 -5 -5 -4 -3 -5 -5 -5 -6 -5 -4 -5 -5 -5
-1 -2 -2 -2 -3 -4 -4 -4 -4 -4 -5 -5 -5 -5 -5 -5 -5 -5 -5 -5 -6 -6 -6 -5 -5 -6 -6
-2 -3 -3 -3 -4 -4 -4 -4 -4 -5 -5 -6 -6 -6 -5 -5 -5 -5 -6 -6 -6 -7 -7 -7 -5 -6 -6
-2 -3 -3 -4 -4 -4 -5 -5 -5 -5 -6 -6 -6 -7 -7 -6 -6 -7 -6 -7 -7 -7 -7 -7 -7 -6 -6

GFSFLT2_850_temp_084.txt.gz
Temp
5 5 4 3 3 4 4 3 3 3 3 3 4 4 4 4 5 4 4 5 6 7 8 7 7 7 7
4 3 3 3 3 3 3 3 3 3 3 3 3 3 3 4 3 4 5 4 5 6 7 6 6 6 6
3 2 2 2 3 2 2 2 2 2 2 2 1 2 2 2 3 3 3 4 5 5 5 5 5 6 6
3 2 2 2 2 1 1 1 1 1 1 1 1 1 2 1 2 2 2 3 3 4 4 4 4 4 4
2 2 2 2 2 1 1 1 1 0 1 1 0 1 1 1 1 2 2 2 2 3 3 3 3 2 2
2 2 1 1 1 1 1 1 1 0 -1 -0 -0 0 -0 -0 0 1 1 1 1 2 2 2 2 2 2
1 2 1 1 1 1 0 -0 -0 -0 -0 -0 -1 -0 -1 -1 -0 -1 -0 1 1 1 1 1 1 1 0
2 1 0 0 0 -0 -1 -1 -1 -1 -1 -1 -1 -1 -1 -1 -1 -1 -1 -1 -1 -1 -0 -0 -0 -0 -0
1 1 0 0 -0 -1 -1 -1 -1 -1 -1 -2 -2 -2 -1 -1 -1 -1 -1 -1 -1 -1 -1 -1 -1 -1 -1
0 0 -0 -0 -1 -1 -1 -2 -2 -2 -2 -2 -2 -2 -2 -2 -2 -2 -2 -2 -2 -2 -2 -2 -2 -2 -2
-0 -1 -1 -1 -1 -2 -2 -2 -2 -3 -2 -3 -2 -2 -3 -2 -2 -2 -3 -3 -3 -3 -2 -3 -3 -3 -2
-0 -1 -1 -1 -2 -2 -2 -3 -3 -3 -3 -3 -3 -3 -3 -2 -3 -3 -3 -4 -3 -3 -3 -3 -3 -3 -3
-1 -1 -1 -1 -2 -2 -3 -3 -3 -3 -3 -3 -3 -2 -2 -2 -3 -3 -3 -4 -4 -4 -4 -4 -4 -4 -4
-1 -1 -1 -1 -2 -2 -3 -3 -4 -4 -4 -3 -3 -3 -3 -3 -3 -3 -5 -5 -5 -5 -4 -4 -4 -4 -4
-1 -1 -1 -2 -2 -3 -3 -4 -4 -4 -5 -5 -5 -4 -4 -4 -3 -4 -5 -5 -5 -6 -5 -5 -5 -6 -6
-1 -1 -2 -2 -2 -3 -3 -4 -4 -5 -5 -6 -6 -5 -5 -4 -5 -5 -5 -5 -6 -6 -6 -6 -4 -5 -6
-2 -3 -2 -3 -3 -3 -4 -4 -4 -5 -5 -6 -6 -6 -6 -6 -6 -6 -5 -6 -6 -7 -8 -7 -6 -4 -5

GFSFLT2_850_temp_087.txt.gz
Temp
5 5 5 4 4 4 3 3 4 3 4 3 4 4 4 4 4 4 4 4 5 7 8 8 8 7 7
4 4 4 4 3 2 3 3 2 3 3 3 3 4 3 3 3 4 4 4 5 5 7 7 7 7 7
3 3 3 2 2 2 2 2 2 2 2 1 2 3 2 2 2 3 3 4 4 5 5 6 6 6 6
2 2 2 1 2 1 1 1 2 2 2 1 1 2 2 1 2 2 2 3 4 5 4 4 5 5 5
2 1 2 1 2 2 1 1 1 1 1 1 1 1 1 1 1 2 2 2 2 3 3 3 3 3 4
1 1 1 1 1 1 1 1 0 0 1 0 -0 0 0 0 1 1 2 2 2 2 2 2 2 2 2
1 1 1 1 0 0 0 -0 0 0 -0 -0 -0 -0 -0 0 0 0 1 1 1 1 2 2 2 2 2
1 1 1 1 -0 0 -0 -0 -0 -1 -1 -1 -1 -1 -1 -0 0 0 -0 -0 0 0 1 1 1 1 1
1 1 0 0 -0 -0 -0 -1 -1 -1 -1 -1 -1 -1 -1 -1 -0 -0 -0 -0 -0 -0 -0 -1 -0 -0 -0
1 0 0 0 0 -0 -1 -1 -1 -2 -1 -2 -1 -2 -1 -1 -1 -1 -1 -1 -1 -1 -1 -1 -1 -1 -1
0 0 0 0 -0 -1 -1 -1 -2 -2 -2 -2 -2 -2 -2 -2 -2 -2 -2 -2 -2 -2 -2 -2 -2 -2 -2
0 0 0 -0 -1 -1 -1 -2 -2 -2 -2 -2 -3 -2 -2 -2 -3 -2 -2 -2 -3 -2 -2 -2 -2 -2 -2
0 -0 -0 -0 -1 -1 -1 -1 -1 -2 -2 -2 -3 -2 -2 -2 -3 -3 -3 -3 -3 -3 -3 -3 -3 -3 -3
-1 -1 -1 -1 -1 -1 -1 -1 -1 -2 -2 -3 -3 -3 -3 -3 -3 -3 -4 -4 -4 -4 -3 -3 -4 -4 -4
-2 -2 -2 -2 -2 -1 -2 -2 -2 -3 -3 -3 -3 -4 -4 -4 -3 -4 -5 -5 -5 -4 -4 -4 -4 -5 -5
-2 -2 -3 -3 -3 -3 -3 -2 -3 -3 -4 -5 -5 -4 -4 -4 -4 -4 -4 -5 -6 -5 -5 -4 -3 -5 -5
-2 -2 -3 -3 -3 -3 -3 -3 -4 -4 -5 -5 -5 -6 -6 -5 -5 -5 -5 -6 -6 -6 -7 -7 -4 -4 -4

GFSFLT2_850_temp_090.txt.gz
Temp
4 5 5 5 4 4 4 3 3 3 3 3 4 4 4 4 4 4 3 3 4 6 8 8 8 8 8
4 4 4 4 4 4 3 2 3 2 2 3 3 3 3 3 4 4 4 3 4 5 6 6 7 7 7
2 2 3 3 3 2 2 2 2 2 2 2 2 3 2 2 3 3 3 3 4 5 6 6 7 7 6
2 2 2 2 2 1 1 1 1 1 2 1 1 2 1 1 2 2 3 3 4 5 5 4 5 5 6
2 2 1 1 1 1 1 1 1 1 1 1 1 0 0 1 2 2 2 2 3 4 4 4 4 4 4
1 1 1 1 1 1 1 1 0 1 1 0 -0 -0 -0 0 1 1 2 2 2 2 3 3 3 3 3
0 1 1 1 1 0 1 0 0 -0 -0 -0 -1 -1 -1 -0 0 -0 0 1 1 2 2 2 2 2 2
1 1 2 1 1 1 0 -0 -0 -1 -1 -1 -1 -1 -1 -1 -0 -0 -0 0 0 1 1 1 1 2 2
1 1 1 1 1 1 -0 -0 -0 -0 -1 -1 -1 -1 -1 -1 -1 -1 -0 -0 0 0 0 0 0 1 1
0 0 0 0 1 0 -0 -0 -0 -0 -1 -1 -1 -1 -1 -1 -1 -1 -1 -1 -0 -0 -1 -0 -0 -0 -0
-0 -0 0 0 0 -0 -1 -1 -1 -1 -1 -1 -1 -1 -2 -2 -1 -1 -1 -1 -1 -1 -1 -1 -1 -1 -1
-0 -0 -0 -0 -1 -1 -1 -1 -1 -1 -1 -1 -1 -2 -2 -2 -2 -2 -1 -1 -1 -1 -1 -1 -1 -1 -2
-1 -1 -1 -1 -1 -1 -1 -1 -1 -1 -1 -1 -1 -2 -2 -2 -2 -2 -2 -2 -2 -2 -2 -2 -2 -2 -2
-1 -1 -1 -1 -1 -1 -1 -1 -2 -2 -2 -2 -2 -2 -2 -2 -2 -3 -3 -3 -3 -3 -3 -2 -3 -3 -3
-1 -1 -1 -1 -2 -2 -2 -2 -3 -3 -3 -3 -3 -3 -3 -3 -3 -3 -4 -4 -4 -4 -3 -3 -4 -4 -4
-2 -2 -2 -2 -2 -2 -2 -3 -3 -4 -4 -4 -4 -4 -4 -4 -4 -4 -4 -4 -5 -5 -5 -4 -3 -5 -5
-2 -2 -2 -3 -3 -2 -3 -3 -3 -4 -5 -5 -5 -5 -5 -5 -5 -4 -5 -5 -5 -6 -6 -6 -4 -3 -4

GFSFLT2_850_temp_093.txt.gz
Temp
4 4 5 4 4 4 4 4 3 3 2 3 3 3 4 4 4 4 4 4 4 5 8 9 9 9 9
3 3 3 4 4 3 3 3 2 2 2 2 3 3 3 3 4 4 3 3 4 6 6 7 8 8 8
2 2 2 2 3 3 3 2 2 1 1 1 1 2 2 2 3 3 3 3 4 5 6 6 7 7 7
1 1 2 2 2 2 2 1 0 1 0 0 1 2 1 2 2 2 2 3 3 4 5 6 6 7 6
1 1 1 1 1 1 1 0 0 0 1 0 0 1 1 1 1 2 2 2 3 4 4 4 5 5 5
1 1 1 0 0 0 1 1 0 1 0 0 0 -0 -0 0 1 1 1 2 2 2 3 4 4 4 4
1 1 0 0 1 0 1 1 1 0 0 -0 -0 -0 -1 -1 0 0 0 1 1 2 2 3 3 3 3
1 1 1 1 1 1 0 1 1 -0 -0 -0 -0 -0 -1 -1 -1 -0 -0 -0 0 1 1 2 2 2 2
1 1 1 1 1 0 1 1 1 0 -0 -1 -1 -1 -1 -1 -1 -0 -0 -0 -0 -0 -0 0 1 1 1
1 1 0 0 1 1 0 0 0 -0 -1 -1 -1 -1 -1 -1 -1 -1 -1 -1 -1 -1 -1 -0 0 0 0
0 0 0 -0 -0 0 0 -0 0 -0 -1 -1 -1 -1 -1 -1 -1 -1 -1 -1 -1 -1 -1 -1 -1 -1 -1
-0 -0 -1 -1 -1 -0 -0 -0 -0 -0 -0 -1 -1 -2 -2 -1 -1 -1 -1 -1 -1 -1 -1 -1 -1 -1 -1
-1 -1 -1 -1 -1 -1 -1 -0 -0 -0 -1 -1 -2 -2 -2 -2 -2 -2 -2 -2 -2 -2 -2 -2 -2 -2 -2
-1 -1 -1 -1 -1 -1 -1 -1 -1 -2 -2 -2 -2 -2 -2 -2 -3 -2 -2 -2 -2 -2 -2 -2 -2 -2 -2
-2 -2 -2 -2 -1 -2 -2 -2 -2 -2 -2 -2 -3 -3 -3 -3 -3 -3 -3 -3 -3 -3 -2 -2 -3 -3 -3
-2 -2 -2 -2 -2 -2 -2 -2 -2 -3 -3 -3 -3 -3 -3 -4 -4 -3 -4 -4 -4 -3 -3 -3 -3 -4 -3
-2 -2 -2 -3 -3 -2 -2 -2 -3 -3 -3 -4 -4 -4 -5 -5 -5 -4 -5 -5 -4 -5 -5 -4 -3 -4 -4

GFSFLT2_850_temp_096.txt.gz
Temp
3 4 4 4 4 4 3 3 3 3 3 3 3 3 3 3 4 3 4 3 4 5 6 9 9 9 9
3 3 3 3 3 3 3 2 3 2 2 2 2 3 3 2 3 3 3 3 4 5 6 7 8 8 9
2 2 2 2 2 2 3 2 2 2 2 1 1 2 2 2 2 3 3 3 4 5 6 7 7 8 8
1 1 1 1 1 2 2 2 1 1 0 0 1 2 2 2 2 2 2 3 4 4 5 6 6 7 7
1 1 1 1 1 1 1 1 1 0 0 0 1 1 1 2 2 2 2 2 3 4 4 5 6 6 6
1 1 1 1 1 1 0 0 -0 1 1 1 0 1 1 0 1 1 2 2 3 3 4 4 4 5 5
1 1 1 0 0 -0 0 0 -0 0 0 0 1 0 -0 0 1 0 1 1 2 2 3 3 3 3 4
1 1 1 1 0 0 0 0 0 0 -0 -0 0 -0 -0 -0 -1 0 0 1 1 2 2 3 3 3 3
1 1 1 1 1 0 0 -0 -1 -0 -0 -1 -0 -0 -1 -1 -1 -0 -0 0 0 1 1 1 2 2 2
1 0 0 1 1 0 0 -0 -1 -0 -0 -0 -0 -1 -0 -0 -1 -1 -1 -1 -1 -1 0 0 1 1 1
0 0 0 1 1 0 0 0 -0 -0 -0 -0 -0 -0 -1 -1 -1 -1 -1 -1 -1 -1 -1 -1 -1 -0 -0
-0 -0 -0 0 0 0 0 0 -0 -0 -0 -0 -0 -1 -1 -1 -1 -1 -1 -1 -1 -1 -1 -1 -1 -1 -1
-1 -0 -1 -0 -0 -0 -0 -0 -0 -0 -0 -1 -1 -1 -1 -1 -2 -2 -2 -2 -2 -2 -2 -2 -2 -2 -1
-1 -1 -1 -1 -1 -1 -1 -1 -1 -1 -1 -1 -1 -1 -2 -2 -2 -2 -2 -2 -2 -2 -2 -2 -2 -2 -2
-1 -1 -1 -2 -2 -1 -1 -1 -1 -1 -1 -1 -1 -2 -2 -2 -2 -2 -3 -2 -3 -3 -2 -2 -2 -2 -2
-2 -1 -2 -2 -2 -2 -2 -2 -2 -2 -2 -2 -2 -2 -2 -2 -3 -3 -3 -3 -3 -3 -3 -3 -3 -3 -3
-2 -2 -2 -2 -2 -2 -2 -2 -2 -2 -3 -3 -3 -3 -4 -4 -4 -4 -4 -4 -4 -4 -4 -4 -3 -3 -4

GFSFLT2_850_temp_099.txt.gz
Temp
4 4 3 4 4 4 4 3 3 4 4 3 4 3 3 3 3 4 4 4 4 4 5 6 8 9 9
3 2 3 3 3 3 3 3 3 3 3 2 3 2 2 3 3 4 4 4 4 4 5 6 7 7 8
2 2 2 2 2 2 2 2 2 2 2 2 2 1 2 3 3 2 4 3 4 4 5 6 6 7 8
1 1 2 2 2 2 2 2 2 1 2 1 1 1 1 2 2 2 3 3 3 4 5 6 7 7 7
1 1 1 2 2 1 1 1 1 1 1 0 0 1 1 1 1 2 2 3 3 4 4 5 6 7 7
1 1 1 1 1 1 1 1 -0 1 1 1 1 1 1 1 1 1 2 2 3 3 4 4 5 5 6
1 1 1 1 1 1 0 -0 -0 1 0 0 0 0 -0 0 0 0 1 1 2 2 3 3 4 4 4
1 1 0 0 -0 0 -0 -0 0 0 0 0 0 0 -0 -0 0 0 0 0 1 2 2 3 3 3 4
1 1 1 1 1 0 1 0 0 1 0 -0 0 0 -0 -0 -0 0 0 1 1 1 1 2 2 2 3
1 1 1 1 0 1 1 0 0 1 0 -0 -0 -0 -0 0 -0 -0 -0 -0 0 0 0 0 1 1 2
0 1 1 0 0 0 1 1 0 0 0 0 0 -0 -1 -0 -0 -0 -0 -0 -0 -0 -0 -0 0 1 1
-0 -0 -0 0 0 0 1 1 0 0 0 0 0 -0 -1 -1 -0 -0 -0 -0 -0 -0 -0 -0 -0 0 0
-1 -1 -1 -0 -0 -0 0 0 -0 -0 -0 -0 -0 -1 -1 -1 -1 -1 -1 -1 -1 -1 -1 -1 -1 -1 -1
-1 -1 -1 -1 -0 -0 -0 -0 -0 -0 -0 -0 -0 -1 -1 -0 -1 -1 -1 -2 -1 -1 -1 -1 -2 -1 -1
-1 -1 -1 -1 -1 -1 -1 -1 -1 -1 -1 -1 -1 -1 -1 -1 -1 -1 -2 -2 -2 -2 -2 -2 -2 -2 -2
-2 -1 -1 -1 -1 -1 -1 -1 -1 -1 -1 -1 -1 -1 -1 -2 -2 -2 -2 -3 -3 -3 -3 -2 -2 -3 -3
-2 -2 -2 -2 -2 -1 -2 -2 -2 -2 -2 -2 -2 -2 -2 -2 -3 -3 -3 -4 -4 -4 -4 -4 -4 -4 -4

GFSFLT2_850_temp_102.txt.gz
Temp
5 5 4 3 3 4 3 3 3 4 4 4 3 3 3 3 3 3 4 4 4 4 4 5 7 7 9
3 3 3 3 3 3 3 3 3 3 3 3 3 3 2 2 3 3 4 4 4 4 4 5 6 7 9
3 2 2 2 2 2 3 3 2 2 2 2 3 2 1 2 3 3 3 3 3 4 4 6 6 7 7
2 1 1 1 2 2 2 2 2 2 2 2 2 1 1 2 2 3 3 3 4 4 4 5 6 7 7
1 1 1 1 2 2 2 2 1 1 1 1 1 1 1 1 1 2 2 3 3 4 4 4 6 6 6
1 1 1 1 1 2 2 1 1 0 1 1 0 0 1 1 1 1 1 2 3 4 4 4 4 6 5
1 1 1 1 1 1 1 0 -0 -0 0 0 0 1 1 0 0 1 1 1 2 3 3 4 4 4 5
1 1 1 1 0 0 -0 -1 -0 -0 -0 -0 0 1 0 0 0 -0 0 0 1 2 3 3 3 4 4
1 1 1 1 1 0 0 0 -0 0 0 1 1 1 1 0 -0 0 1 1 1 1 2 2 3 3 3
1 1 1 1 1 1 1 0 1 1 1 1 1 1 0 0 0 0 0 0 1 1 1 1 2 2 2
1 1 1 1 1 1 1 1 1 1 2 1 1 1 0 1 1 1 0 0 0 0 0 1 1 1 1
0 0 1 1 1 1 1 1 1 1 1 1 1 1 0 0 0 0 0 0 0 0 -0 0 0 0 1
-0 0 0 -0 -0 0 0 0 0 0 0 0 0 -0 0 0 0 0 0 -0 0 0 -0 -0 -0 -0 -0
-1 -1 -1 -0 -1 -1 -1 -1 -0 -0 0 0 -0 -0 0 0 -0 -0 -0 -0 -1 -1 -1 -1 -1 -1 -1
-1 -1 -1 -1 -1 -1 -1 -1 -1 -0 -0 -0 -0 -0 -0 -0 -1 -1 -1 -1 -1 -1 -1 -1 -1 -1 -1
-2 -1 -2 -1 -1 -1 -2 -1 -1 -1 -1 -1 -1 -1 -1 -1 -1 -1 -1 -2 -2 -2 -2 -2 -2 -2 -2
-2 -2 -2 -2 -2 -2 -2 -2 -2 -1 -1 -2 -2 -2 -2 -2 -2 -2 -2 -3 -3 -3 -3 -3 -3 -3 -3

GFSFLT2_850_temp_105.txt.gz
Temp
7 6 5 5 4 3 3 3 3 3 3 3 3 3 3 3 3 3 3 4 4 4 4 4 5 7 8
5 4 3 3 3 2 2 3 3 3 3 3 3 3 3 3 2 3 3 4 4 4 3 4 6 6 7
5 4 3 3 2 2 2 2 2 2 2 2 2 2 3 2 2 3 3 3 4 4 3 5 6 7 7
4 3 2 2 1 1 2 2 2 2 2 1 1 2 1 1 2 2 3 3 3 4 4 4 6 6 7
3 2 2 2 1 1 2 2 2 2 2 2 1 1 1 1 2 2 3 3 3 4 4 4 5 6 6
4 2 2 1 1 1 1 2 1 1 1 1 1 1 1 1 2 2 2 2 3 3 4 4 4 5 6
3 1 1 2 1 1 1 1 1 -0 0 0 1 1 1 1 1 1 1 1 2 3 3 3 4 4 5
3 2 2 1 1 1 0 0 -1 -1 -0 0 1 1 1 1 1 1 1 1 1 2 2 3 3 4 4
2 2 1 1 0 -0 -0 -1 -1 -0 0 0 1 1 1 1 1 1 1 1 1 1 2 2 3 3 4
2 2 1 1 0 0 -0 -1 -0 0 1 0 1 1 1 1 1 1 1 1 1 1 1 2 2 2 3
1 1 1 1 1 1 -0 0 1 1 1 1 1 1 1 1 1 1 1 1 1 0 0 1 1 2 2
0 0 0 0 1 0 -0 -0 1 1 -0 0 1 1 1 1 1 1 1 1 1 0 0 -0 -0 0 1
0 -0 -0 -1 -0 -0 -0 -0 1 0 -0 -0 0 1 1 1 1 0 0 0 0 0 0 -0 -0 -0 -0
-0 -1 -2 -1 -1 -1 -0 -0 -0 -0 -0 0 0 0 1 1 1 0 0 0 0 -0 -0 -0 -1 -1 -1
-2 -2 -2 -2 -1 -1 -1 -1 -1 -1 -0 -0 -0 -0 0 0 0 -0 -0 -0 -1 -1 -1 -1 -1 -1 -1
-3 -2 -2 -2 -2 -2 -2 -2 -1 -1 -1 -1 -1 -1 -1 -1 -1 -1 -1 -1 -1 -2 -2 -2 -2 -2 -2
-3 -3 -2 -2 -3 -2 -2 -2 -2 -2 -2 -2 -2 -2 -1 -1 -1 -1 -1 -2 -2 -2 -2 -3 -3 -3 -3

GFSFLT2_850_temp_108.txt.gz
Temp
8 8 7 6 6 5 4 4 4 3 3 3 3 3 4 3 4 3 3 3 4 4 4 4 4 5 6
8 7 6 5 4 3 3 2 2 3 3 3 3 3 2 3 3 2 2 3 4 4 3 3 4 5 7
7 6 5 5 3 3 2 2 2 2 2 2 2 2 2 3 2 2 2 3 3 3 3 4 5 5 6
6 6 5 5 4 2 2 1 2 2 1 2 2 2 2 1 1 2 3 2 3 4 4 4 5 6 6
6 5 5 5 5 3 2 1 2 1 2 2 2 1 1 1 1 2 2 2 3 4 4 4 4 5 6
7 5 5 5 4 3 1 1 1 2 2 1 1 1 1 1 2 2 2 1 2 4 4 4 4 5 5
6 5 4 5 2 1 1 1 2 1 1 0 1 1 1 1 1 1 1 1 2 3 4 4 4 4 5
4 3 3 3 2 2 2 1 1 1 -1 -1 1 1 2 1 1 1 1 1 1 3 3 3 3 4 5
3 2 3 2 2 1 1 0 -0 -0 -0 -1 1 1 1 1 1 1 1 1 1 2 3 3 3 3 4
2 2 1 1 1 1 0 -0 -1 -1 -0 -0 1 1 1 1 1 1 1 1 1 2 2 2 2 3 3
1 1 1 1 1 0 0 -1 -1 -1 1 0 2 1 1 1 2 2 1 1 1 1 1 1 1 2 2
-0 -0 0 0 1 0 -1 -1 -1 -0 -0 0 1 1 1 1 2 2 1 1 1 1 0 0 1 1 1
-1 -1 -0 -0 -1 -1 -1 -1 -1 -0 -1 -0 0 -0 0 1 1 1 1 1 1 1 0 0 0 0 1
-1 -2 -2 -2 -1 -1 -1 -1 -1 -1 -1 -0 -0 -1 0 0 1 1 1 1 1 0 -0 -0 -0 -0 -0
-1 -2 -3 -3 -2 -2 -2 -2 -2 -1 -1 -1 -0 -1 -0 0 1 1 0 0 0 -0 -0 -1 -1 -1 -1
-2 -2 -4 -3 -3 -3 -3 -2 -2 -2 -1 -1 -1 -1 -1 -0 0 0 0 -0 -0 -1 -1 -1 -1 -1 -1
-3 -3 -4 -4 -4 -4 -3 -3 -3 -3 -2 -2 -2 -2 -1 -1 -0 -0 -0 -1 -1 -1 -2 -2 -2 -2 -2

GFSFLT2_850_temp_111.txt.gz
Temp
9 9 9 8 8 7 6 6 6 5 5 4 3 3 3 3 3 3 3 3 3 4 4 4 4 4 4
9 9 9 8 7 6 6 5 4 4 3 3 3 3 3 3 3 3 2 3 3 4 4 4 4 5 5
7 8 7 7 7 6 5 4 3 2 2 2 2 2 2 2 2 2 2 2 3 4 4 4 4 5 5
6 6 6 5 6 5 4 4 3 2 2 2 2 2 2 2 1 1 2 3 3 4 4 4 5 5 5
4 4 6 5 5 5 4 3 2 2 2 2 2 2 1 1 1 1 2 2 3 4 4 5 5 5 5
5 5 6 5 4 4 3 3 2 2 2 2 1 1 1 1 1 2 2 2 3 4 4 4 5 5 6
5 4 6 5 3 3 3 1 2 2 2 1 1 1 1 1 2 2 1 1 2 3 4 4 4 4 5
4 5 4 4 2 2 1 1 0 1 0 0 1 1 1 2 1 1 1 1 1 3 3 3 4 4 5
3 2 2 2 2 0 -0 0 -0 -0 0 -0 0 1 1 1 2 1 1 1 2 2 2 3 3 4 4
2 2 1 2 1 0 0 -0 -0 -1 -0 -0 0 0 1 2 2 2 1 1 1 2 2 2 3 3 4
1 1 1 1 0 0 -0 -0 -0 -1 -0 -0 0 1 1 1 2 1 1 1 1 1 1 2 2 3 3
-0 0 0 0 -0 -0 -1 -1 -1 -1 -2 -1 -1 0 1 1 2 2 2 1 1 1 1 1 2 2 2
-0 -0 -1 -1 -2 -1 -1 -1 -2 -1 -2 -1 -1 -0 0 1 1 2 1 1 1 1 1 1 1 1 1
-0 -1 -1 -2 -4 -2 -2 -1 -2 -1 -1 -1 -1 -1 -0 0 0 1 1 1 1 1 1 0 0 0 0
-1 -2 -2 -3 -4 -3 -2 -2 -3 -2 -1 -1 -1 -1 -1 -0 -0 0 0 0 1 1 0 -0 -0 -0 -0
-2 -2 -2 -3 -4 -4 -3 -3 -3 -3 -2 -2 -1 -1 -1 -1 -1 -0 -0 0 0 0 -0 -1 -1 -1 -1
-2 -3 -3 -3 -4 -5 -5 -5 -4 -4 -3 -3 -2 -2 -1 -1 -1 -1 -0 -1 -1 -1 -1 -1 -1 -1 -2